Terminal Aerodrome Forecast
Issued by NWS Aberdeen, SD

Home | Current Version | Previous Version | Text Only | Print | Product List | Glossary On
Versions: 1 2 3 4 5 6 7 8 9 10 11 12 13 14 15 16 17 18 19 20 21 22 23 24 25 26 27 28 29 30 31 32 33 34 35 36 37 38 39 40 41 42 43 44 45 46 47 48 49 50
253
FTUS43 KABR 061727
TAFABR
TAF
KABR 061727Z 0618/0718 29028G42KT P6SM VCSH BKN060 OVC090
     FM062100 29026G38KT P6SM VCSH BKN025
     FM070000 30022G31KT P6SM BKN015
     FM070300 30020G28KT P6SM BKN025
     FM070600 29016KT P6SM BKN050
     FM071200 29016KT P6SM BKN015=

USA.gov is the U.S. government's official web portal to all federal, state and local government web resources and services.